SCP
1 1 1 1 1 1 1 1 1 1 1 1 0 0 0 0 0 0 1 1 1 1 1 1 1 1 1 1 1 1 1 0 0 0 0 0 0 0 0 0 0 0 0
1 1 1 1 1 1 1 1 0 0 0 0 0 0 0 0 0 0 1 1 1 1 1 1 1 1 1 1 1 1 1 1 1 0 0 0 0 0 0 0 0 0 0
1 1 1 1 1 1 1 0 0 0 0 0 0 0 0 0 0 1 1 1 1 1 1 1 1 1 1 1 1 1 1 1 1 1 1 0 0 0 0 0 0 0 0
0 0 1 1 1 1 0 0 0 0 0 0 0 0 0 0 0 1 1 1 1 1 1 1 1 1 1 1 1 1 1 1 1 1 1 1 0 0 0 0 0 0 0
0 0 0 0 0 0 0 0 0 0 0 0 0 0 0 0 0 0 0 1 1 1 1 1 1 1 1 1 1 1 1 1 1 1 1 1 1 1 0 0 0 0 0
0 0 0 0 0 0 0 0 0 0 0 0 0 0 0 0 0 0 0 0 1 1 1 1 1 1 1 1 1 1 1 1 1 1 1 1 1 1 1 0 0 0 0
0 0 0 0 0 0 0 0 0 0 0 0 0 0 0 0 0 0 0 0 0 1 1 1 1 1 1 1 1 1 1 1 1 1 1 1 1 1 1 1 0 0 0
0 0 0 0 0 0 0 0 0 0 0 0 0 0 0 0 0 0 0 0 0 1 1 1 1 1 1 1 1 1 1 1 1 1 1 1 1 1 1 1 0 0 0
0 0 0 0 0 0 0 0 0 0 0 0 0 0 0 0 0 0 0 0 0 1 1 1 1 1 1 1 1 1 1 1 1 1 1 1 1 1 1 1 1 0 0
0 0 0 0 0 0 0 0 0 0 0 0 0 0 0 0 0 0 0 0 0 0 0 0 0 1 1 1 1 1 1 1 1 1 1 1 1 1 1 1 1 1 0
0 0 0 0 0 0 0 0 0 0 0 0 0 0 0 0 0 0 0 0 0 0 0 0 0 0 1 1 1 1 1 1 1 1 1 1 1 1 1 1 1 1 0
0 0 0 0 0 0 0 0 0 0 0 0 0 0 0 0 0 0 0 0 0 0 0 0 0 0 0 1 1 0 0 0 0 1 1 1 1 1 1 1 1 1 1
0 0 0 0 0 0 0 0 0 0 0 0 0 0 0 0 0 0 0 0 0 0 0 0 0 0 0 0 0 0 0 0 0 0 0 1 1 1 1 1 1 1 1
0 0 0 0 0 0 0 0 0 0 0 0 0 0 0 0 0 0 0 0 0 0 0 0 0 0 0 0 0 0 0 0 0 0 0 0 0 1 1 1 1 1 1
0 0 0 0 0 0 0 0 0 0 0 0 0 0 0 0 0 0 0 0 0 0 0 0 0 0 0 0 0 0 0 0 0 0 0 0 0 0 0 0 0 0 0
0 0 0 0 0 0 0 0 0 0 0 0 0 0 0 0 0 0 0 0 0 0 0 0 0 0 0 0 0 0 0 0 0 0 0 0 0 0 0 0 0 0 0
0 0 0 0 0 0 0 0 0 0 0 0 0 0 0 0 0 0 0 0 0 0 0 0 0 0 0 0 0 0 0 0 0 0 0 0 0 0 0 0 0 0 0
0 0 0 0 0 0 0 0 0 0 0 0 0 0 0 0 0 0 0 0 0 0 0 0 0 0 0 0 0 0 0 0 0 0 0 0 0 0 0 0 0 0 0
0 0 0 0 0 0 0 0 0 0 0 0 0 0 0 0 0 0 0 0 0 0 0 0 0 0 0 0 0 0 0 0 0 0 0 0 0 0 0 0 0 0 0
0 0 0 0 0 0 0 0 0 0 0 0 0 0 0 0 0 0 0 0 0 0 0 0 0 0 0 0 0 0 0 0 0 0 0 0 0 0 0 0 0 0 0
0 0 0 0 0 0 0 0 0 0 0 0 0 0 0 0 0 0 0 0 0 0 0 0 0 0 0 0 0 0 0 0 0 0 0 0 0 0 0 0 0 0 0
0 0 0 0 0 0 0 0 0 0 0 0 0 0 0 0 0 0 0 0 0 0 0 0 0 0 0 0 0 0 0 0 0 0 0 0 0 0 0 0 0 0 0
0 0 0 0 0 0 0 0 0 0 0 0 0 0 0 0 0 0 0 0 0 0 0 0 0 0 0 0 0 0 0 0 0 0 0 0 0 0 0 0 0 0 0
0 0 0 0 0 0 0 0 0 0 0 0 0 0 0 0 0 0 0 0 0 0 0 0 0 0 0 0 0 0 0 0 0 0 0 0 0 0 0 0 0 0 0
0 0 0 0 0 0 0 0 0 0 0 0 0 0 0 0 0 0 0 0 0 0 0 0 0 0 0 0 0 0 0 0 0 0 0 0 0 0 0 0 0 0 0
0 0 0 0 0 0 0 0 0 0 0 0 0 0 0 0 0 0 0 0 0 0 0 0 0 0 0 0 0 0 0 0 0 0 0 0 0 0 0 0 0 0 0
Wind_Speed
1 1 1 1 1 1 1 1 1 2 3 4 5 6 5 6 4 3 3 13 14 14 15 16 17 17 17 16 16 16 15 15 14 13 12 12 12 12 11 11 10 9 9
2 1 0 0 1 1 1 1 3 2 4 4 5 6 6 6 5 5 4 8 14 15 15 16 17 18 18 18 18 17 17 16 15 14 14 13 13 12 12 12 11 10 10
1 0 1 0 0 1 2 2 3 2 4 4 5 5 5 5 5 5 5 4 7 13 16 17 17 17 18 19 20 19 18 17 16 16 15 15 14 13 13 12 12 11 11
0 1 0 0 1 1 2 2 2 2 2 2 3 4 4 4 6 6 5 5 5 7 13 18 18 18 19 20 21 21 20 19 18 18 17 16 16 15 14 14 13 12 12
1 1 1 1 2 2 1 2 2 2 2 3 4 5 5 5 5 6 6 7 7 6 6 13 20 20 21 22 21 21 21 21 20 20 19 19 18 17 16 15 14 13 13
1 2 1 1 2 2 2 2 3 3 3 3 6 5 4 5 5 5 7 7 7 8 8 9 10 14 21 21 21 21 22 22 22 21 21 21 20 18 17 16 15 15 14
1 1 2 1 1 1 2 3 2 4 4 3 3 4 5 6 6 6 6 6 6 7 7 8 7 7 9 19 20 21 22 23 22 22 22 22 21 20 19 18 17 16 15
0 2 2 2 2 2 3 2 2 2 4 3 3 4 4 4 2 5 4 5 5 4 5 8 7 8 7 7 13 21 22 23 24 24 23 22 21 20 20 20 18 17 17
1 1 1 2 3 4 3 2 3 3 3 4 3 2 3 3 4 4 3 2 2 2 4 4 7 8 9 7 8 17 22 22 23 25 24 23 22 21 21 21 20 19 18
2 2 2 2 2 3 4 5 3 3 3 4 4 3 3 3 3 4 4 3 3 3 3 4 5 6 8 7 8 12 19 22 23 24 24 24 23 23 22 22 22 21 20
3 3 2 1 1 2 4 4 5 4 3 4 4 4 4 3 4 4 5 4 4 3 3 4 3 4 6 7 7 11 16 19 21 23 23 23 24 24 24 24 24 24 23
2 2 1 2 2 3 4 4 4 5 4 5 4 4 4 4 4 4 4 5 4 4 3 3 3 4 4 5 9 11 13 16 19 22 23 23 23 24 24 24 25 25 24
3 4 4 3 3 3 4 4 4 5 5 5 5 4 4 4 4 4 4 4 5 4 4 4 3 3 3 3 4 9 11 13 16 19 21 22 22 22 23 23 24 24 24
3 4 4 3 4 4 5 4 4 5 5 5 6 6 4 5 5 4 4 4 5 5 4 5 3 2 2 2 4 7 7 11 14 17 19 21 22 22 22 21 21 22 22
5 5 5 5 5 5 5 5 4 5 5 5 5 6 5 4 4 4 4 4 4 6 6 5 3 2 1 2 4 4 4 8 11 14 17 18 19 20 20 20 20 20 20
4 4 5 5 5 5 5 5 5 5 6 5 5 6 5 5 5 4 4 4 4 5 6 4 4 3 2 3 3 3 5 8 10 13 15 17 19 19 19 20 20 20 20
4 4 5 5 5 5 5 5 6 6 6 6 6 6 6 6 5 5 5 4 4 4 6 5 4 4 3 3 3 3 4 5 5 11 14 16 17 18 18 19 19 19 19
4 5 5 5 6 6 5 5 6 7 6 7 7 6 7 7 6 5 5 6 6 5 6 7 5 4 5 4 3 4 4 4 4 8 11 13 15 16 17 18 19 18 18
5 5 5 5 6 6 6 6 6 6 6 6 6 7 7 7 6 6 6 6 6 7 5 5 6 4 4 4 3 3 4 3 4 5 8 11 13 15 16 17 18 18 17
5 5 5 5 5 6 7 6 6 5 6 6 6 7 7 7 7 6 6 6 6 6 6 6 6 5 4 4 3 3 3 2 2 3 4 5 8 12 14 15 16 17 17
6 5 5 5 6 6 6 3 4 6 6 7 7 7 9 9 10 8 8 6 5 5 5 5 5 5 4 3 3 2 2 2 2 2 2 3 4 5 8 11 14 15 15
5 5 5 6 7 7 2 2 3 6 6 8 8 8 9 10 11 12 13 13 10 8 7 6 5 6 5 4 3 3 2 2 2 1 1 2 3 4 5 6 11 14 14
5 5 6 6 6 6 5 6 6 6 8 8 8 8 10 11 9 6 8 11 13 16 14 9 9 8 7 5 4 4 3 3 3 2 1 2 2 3 3 5 12 14 14
5 5 6 6 6 8 6 7 8 7 9 9 9 9 9 8 9 7 7 7 7 8 10 11 10 10 9 6 5 4 4 4 3 3 3 2 1 1 2 3 9 13 13
5 6 6 6 6 7 7 8 8 6 7 9 9 9 8 8 8 7 6 7 8 7 10 13 13 13 13 10 6 3 3 3 3 3 3 2 2 1 1 2 5 10 12
5 7 7 6 7 7 7 9 9 6 7 8 7 7 9 8 8 6 5 6 8 7 7 8 7 8 9 10 11 7 5 4 4 3 3 3 3 3 1 1 3 5 6
Wind_Direction
58 59 47 25 312 293 227 232 257 256 264 257 243 240 240 250 255 253 176 181 179 182 187 192 193 196 197 197 198 196 195 195 191 187 186 186 183 181 180 179 175 172 170
52 28 298 236 291 313 319 278 261 246 242 247 254 255 248 243 239 233 214 195 192 191 196 200 202 203 203 202 201 200 199 199 195 191 190 190 188 186 186 186 183 180 179
74 294 258 216 265 263 251 248 258 252 248 248 250 256 256 250 250 241 237 213 200 203 204 206 207 207 208 208 206 203 201 200 197 195 194 193 192 190 190 190 188 185 184
33 260 267 77 319 274 253 249 234 272 284 283 273 267 262 253 248 242 238 234 219 212 210 212 211 211 211 211 210 208 204 202 200 198 197 196 196 194 193 193 192 189 188
0 356 40 53 312 313 318 324 36 341 306 291 275 255 246 244 241 245 236 231 225 220 213 211 212 213 213 214 213 211 207 205 202 201 201 200 199 197 196 196 195 193 192
50 10 317 58 347 334 348 2 342 313 285 268 280 288 267 251 239 237 238 235 224 222 222 220 207 216 217 215 214 212 210 208 205 203 203 203 203 200 198 198 198 197 197
56 345 344 349 303 336 352 331 335 314 300 290 290 290 273 250 235 227 224 229 226 221 222 219 206 205 211 217 216 214 213 212 208 205 205 205 204 202 200 199 199 200 200
5 299 29 327 336 334 291 285 279 283 302 314 306 302 302 292 289 254 223 223 230 225 231 231 212 207 211 206 213 216 216 215 212 208 206 206 205 203 202 201 201 202 203
333 334 315 308 331 316 309 327 296 289 293 300 283 284 302 315 333 306 307 279 248 240 239 233 222 212 214 213 207 213 216 217 215 212 209 207 205 203 204 203 203 204 205
297 283 280 298 325 318 316 309 334 332 309 299 299 283 266 280 288 310 315 315 298 271 262 258 242 219 212 215 218 213 214 216 216 214 211 209 206 204 204 204 206 208 208
262 253 244 254 319 297 305 321 322 314 305 297 300 306 303 291 254 252 282 298 299 281 264 257 250 241 217 209 214 221 216 215 215 215 213 210 208 207 206 207 209 211 210
300 308 332 44 344 315 318 314 306 295 286 290 293 294 296 293 289 278 279 289 290 287 278 261 248 243 232 216 223 226 220 216 214 214 213 211 210 209 209 210 212 213 213
330 28 23 13 336 318 303 289 287 281 283 284 280 274 278 285 289 287 289 291 294 293 285 270 246 229 237 226 223 231 227 219 216 214 214 213 211 209 210 212 213 214 215
340 7 352 332 315 303 300 309 305 289 282 281 280 277 276 278 282 284 281 288 295 293 286 280 267 234 236 239 226 227 231 221 217 215 215 214 212 209 208 209 211 212 213
327 349 342 323 310 303 299 298 287 289 289 283 279 279 273 273 275 272 272 265 268 281 284 286 286 256 228 234 222 224 233 225 222 216 213 212 211 208 206 207 208 209 209
310 314 307 304 300 297 294 289 287 284 288 284 276 274 278 274 277 280 272 269 261 263 274 279 282 280 282 277 233 238 235 228 227 220 213 211 210 207 205 206 207 206 207
306 295 292 292 292 288 285 282 283 283 282 280 281 280 278 277 275 280 282 277 269 264 270 276 273 277 270 268 271 256 242 230 227 221 215 212 210 207 205 205 205 204 205
297 295 296 294 290 290 291 291 289 291 291 289 286 283 281 280 275 270 271 275 275 270 269 276 278 274 268 258 252 257 254 240 228 220 215 213 211 208 206 204 203 202 202
291 291 287 287 289 291 288 283 278 279 281 284 286 285 282 281 280 274 273 272 275 276 274 274 275 267 263 256 250 258 258 248 234 218 210 212 211 209 206 204 202 199 199
289 284 283 283 284 283 279 278 280 283 287 289 288 286 284 277 272 271 272 266 269 271 275 276 274 273 264 256 236 245 264 246 232 222 206 195 203 205 206 202 200 197 196
286 287 289 286 283 279 280 299 307 299 304 301 293 287 282 279 275 268 270 272 281 281 279 277 276 277 269 264 248 230 246 262 241 221 195 183 183 193 199 201 199 195 192
286 285 281 283 283 288 297 278 285 299 295 290 288 286 285 277 267 252 248 249 249 256 263 268 275 275 277 280 283 259 238 254 262 219 195 212 183 187 191 193 190 187 187
291 288 285 283 283 284 264 245 250 273 282 281 281 282 283 285 297 288 265 253 248 246 242 247 259 266 275 276 284 280 259 242 250 236 193 230 201 195 177 179 175 176 179
286 287 285 285 284 285 270 244 245 259 274 274 272 270 271 275 280 285 289 282 270 257 243 237 240 248 255 259 256 262 257 259 255 224 196 206 219 204 146 146 163 169 169
285 283 281 277 276 278 264 239 235 269 273 276 273 273 271 270 269 266 266 272 275 274 270 257 236 235 238 239 231 238 243 248 252 232 198 182 167 132 107 123 144 156 159
281 282 283 285 282 278 262 233 223 260 278 284 285 279 270 269 273 258 255 264 269 273 282 288 273 251 239 233 223 218 223 229 239 232 194 171 157 139 131 110 134 144 144